{"data":{"norad_id":60264,"intl_designator":"2024-131K","name":"STARLINK-32121","alt_names":[],"object_type":"PAYLOAD","status":"ACTIVE","operator":null,"country":"US","launch_date":"2024-07-27","launch_site_code":"AFETR","launch_vehicle":null,"mission":null,"orbit_class":"UNKNOWN","rcs_meters":null,"size_class":null,"mass_kg":null,"dimensions":null,"purposes":["comms"],"wikipedia_slug":null,"has_3d_model":false,"image_url":null,"decayed_at":null,"tle_current":{"epoch":"2026-05-25T01:56:44.890368Z","epoch_age_seconds":61345,"freshness":"FRESH","line1":"1 60264U 24131K   26145.08107512 -.00001720  00000+0 -45961-4 0  9991","line2":"2 60264  53.1607  57.6611 0001047  87.5146 272.5974 15.30204743103460","mean_motion":15.30204743,"eccentricity":0.0001047,"inclination_deg":53.1607,"raan_deg":57.6611,"arg_perigee_deg":87.5146,"mean_anomaly_deg":272.5974,"bstar":-4.5961e-5,"rev_number":10346,"period_min":94.105054018905,"perigee_km":474.4833632339,"apogee_km":475.91845219177,"semimajor_km":6853.3379077128,"source":"CELESTRAK","updated_at":"2026-05-25T13:38:19.200116Z"}}}